This is the latest recevied weather packets stored in our database for station/object KC5TIL. If no packets are shown the sender has not sent any weather packets the latest 10 day(s).
| Time | Temp. | Humidity | Pressure | Rain* | Wind** | Luminosity | Snow |
|---|---|---|---|---|---|---|---|
| 1788532667 | 29.44° C | 77% | 1015.7 hPa | 0 mm | - | 335 W/m² | - |
| 1788532364 | 29.44° C | 78% | 1015.7 hPa | 0 mm | - | 184 W/m² | - |
| 1788532059 | 28.89° C | 80% | 1015.6 hPa | 0 mm | - | 170 W/m² | - |
| 1788531755 | 28.89° C | 80% | 1015.7 hPa | 0 mm | - | 256 W/m² | - |
| 1788531455 | 27.78° C | 83% | 1015.6 hPa | 0 mm | - | 202 W/m² | - |
| 1788531151 | 27.78° C | 82% | 1015.8 hPa | 0 mm | - | 126 W/m² | - |
| 1788530846 | 27.78° C | 83% | 1015.6 hPa | 0 mm | - | 119 W/m² | - |
| 1788530541 | 27.22° C | 85% | 1015.8 hPa | 0 mm | - | 200 W/m² | - |
| 1788530240 | 27.22° C | 86% | 1015.9 hPa | 0 mm | - | 96 W/m² | - |
| 1788529936 | 27.22° C | 85% | 1015.8 hPa | 0 mm | - | 78 W/m² | - |
| 1788529631 | 27.22° C | 86% | 1015.7 hPa | 0 mm | - | 69 W/m² | - |
| 1788529331 | 27.22° C | 85% | 1015.7 hPa | 0 mm | - | 74 W/m² | - |
| 1788529025 | 27.22° C | 85% | 1015.6 hPa | 0 mm | - | 91 W/m² | - |
| 1788528722 | 27.22° C | 85% | 1015.6 hPa | 0 mm | - | 89 W/m² | - |
| 1788528421 | 27.22° C | 86% | 1015.6 hPa | 0 mm | - | 108 W/m² | - |
| 1788528116 | 26.67° C | 87% | 1015.5 hPa | 0 mm | - | 67 W/m² | - |
| 1788527815 | 26.67° C | 87% | 1015.4 hPa | 0 mm | - | 56 W/m² | - |
| 1788527511 | 26.67° C | 87% | 1015.3 hPa | 0 mm | - | 43 W/m² | - |
| 1788527211 | 26.67° C | 87% | 1015.3 hPa | 0 mm | - | 39 W/m² | - |
| 1788526911 | 26.67° C | 87% | 1015.4 hPa | 0 mm | - | 34 W/m² | - |
| 1788526607 | 26.67° C | 87% | 1015.2 hPa | 0 mm | - | 31 W/m² | - |
| 1788526302 | 26.67° C | 87% | 1015.2 hPa | 0 mm | - | 30 W/m² | - |
| 1788525997 | 26.11° C | 88% | 1015.4 hPa | 0 mm | - | 25 W/m² | - |
| 1788525693 | 26.11° C | 88% | 1015.1 hPa | 0 mm | - | 18 W/m² | - |
| 1788525393 | 26.11° C | 88% | 1015.1 hPa | 0 mm | - | 12 W/m² | - |
* Rain latest hour (hover to see other rain measurements)
** Current wind speed in m/s (hover to see current wind gust speed)